Miscellaneous Local Product
Issued by NWS North Platte, NE

Home | Current Version | Previous Version | Text Only | Print | Product List | Glossary On
Versions: 1 2 3 4 5 6 7 8 9 10 11 12 13 14 15 16 17 18 19 20 21 22 23 24 25 26 27 28 29 30 31 32 33 34 35 36 37 38 39 40 41 42 43 44 45 46 47 48 49 50
000
AXUS43 KLBF 190410
MISLBF


WESTERN AND NORTH CENTRAL NEBRASKA HOURLY WEATHER ROUNDUP
NATIONAL WEATHER SERVICE NORTH PLATTE NE
1000 PM CST THU DEC 18 2014

***STATIONS NOT REPORTING VARIABLES SUCH AS SKY/WEATHER OR
PRESSURE ARE PROVIDED BY THE NEBRASKA DEPARTMENT OF
ROADS...RAWS...AND APRS NETWORKS...AND ARE NOT UNDER
NATIONAL WEATHER SERVICE QUALITY CONTROL***

...OBSERVATIONS IN AND NEAR THE EASTERN PANHANDLE OF NEBRASKA...

CITY           SKY/WX    TMP DP  RH WIND       PRES   REMARKS
PINE RIDGE     PTCLDY    19  15  84 W3        30.05R
CHADRON        PTCLDY    24  17  74 SW12      30.07R WCI  13
ALLIANCE       MOCLDY    11   8  88 W8        30.06S WCI  -1
SIDNEY         CLOUDY    26  19  74 W9        30.09R WCI  17
WHITECLAY        N/A     18  14  84 E9          N/A  WCI   7
CRESCENT LAKE    N/A     25  19  78 W6          N/A  WCI  18
LISCO            N/A     18  12  77 CALM        N/A
BIG SPRINGS      N/A     23  21  91 W7          N/A  WCI  15
$$

...OBSERVATIONS IN NORTH CENTRAL NEBRASKA...

CITY           SKY/WX    TMP DP  RH WIND       PRES   REMARKS
VALENTINE      MOCLDY    12  10  92 SW5       30.08R FOG     WCI   4
THEDFORD       MOCLDY    19  18  94 CALM      30.09S
AINSWORTH      MOCLDY    19  18  96 SW3       30.08S
O`NEILL        CLOUDY    29  28  94 S5        30.13S WCI  24
BROKEN BOW     CLOUDY    28  26  92 SW9       30.12R FOG     WCI  19
BROWNLEE         N/A     16  14  92 CALM        N/A
SPRINGVIEW       N/A     19  17  91 CALM        N/A
BREWSTER         N/A     28  28 100 SW8         N/A  WCI  19
ROSE             N/A     30  30 100 MISG        N/A
SARGENT          N/A     28  26  94 SW5         N/A  WCI  23
COMSTOCK         N/A     33  30  89 SW6         N/A  WCI  28
CHAMBERS         N/A     28  25  89 CALM        N/A
$$

...OBSERVATIONS IN SOUTHWEST NEBRASKA AND FAR NORTHEAST COLORADO...

CITY           SKY/WX    TMP DP  RH WIND       PRES   REMARKS
WRAY           FAIR      22  20  94 W7        30.11S WCI  13
IMPERIAL       PTCLDY    18  16  92 CALM      30.11R FOG
OGALLALA       CLOUDY    17  15  93 CALM      30.10R
NORTH PLATTE   FOG       21  20  96 SW5       30.12S VSB 1/4 WCI  15
MCCOOK         CLOUDY    28  26  92 SW6       30.15R FOG     WCI  22
LEXINGTON      CLOUDY    30  28  91 SW6       30.15R WCI  24
PAXTON           N/A     18  16  90 CALM        N/A
BRADY            N/A     25  23  91 CALM        N/A
GOTHENBURG       N/A     27  25  90 W3          N/A
CALLAWAY         N/A     25  24  96 CALM        N/A
$$

...NORTH PLATTE AREA...

CITY           SKY/WX    TMP DP  RH WIND       PRES   REMARKS
AIRPORT        FOG       21  20  96 SW5       30.12S VSB 1/4 WCI  15
$$

...SOME WEATHER OBSERVATIONS FROM AROUND THE REGION...

CITY           SKY/WX    TMP DP  RH WIND       PRES   REMARKS
DENVER         PTCLDY    28  25  88 SW8       30.07R WCI  20
LARAMIE        MOCLDY    14   9  80 S6        30.06S WCI   5
CHEYENNE       MOCLDY    28  15  58 W9        30.06S WCI  19
SCOTTSBLUFF    CLOUDY    12   8  84 NE3       30.08S
RAPID CITY     CLEAR     21  19  92 W3        30.01S
PIERRE         CLEAR     23  21  92 S3        30.06F
WINNER         FAIR      25  22  88 S7        30.07F WCI  17
SIOUX FALLS    CLOUDY    27  23  85 S8        30.17S WCI  19
OMAHA          CLOUDY    31  27  85 S7        30.25S WCI  24
GRAND ISLAND   CLOUDY    29  24  82 SW8       30.19R WCI  21
KANSAS CITY    FOG       31  30  96 NE5       30.25S VSB 1   WCI  26
WICHITA        CLOUDY    32  28  85 NE3       30.24R
HAYS           CLOUDY    34  25  69 S6        30.19R WCI  29
LIBERAL        CLOUDY    36  30  80 CALM      30.18S
GOODLAND       CLEAR     24  22  91 W6        30.10F WCI  17
$$



USA.gov is the U.S. government's official web portal to all federal, state and local government web resources and services.